ISS - Orbit

View from above orbital plane
View from above orbital plane
View from above satellite
View from above satellite

Ground track
Ground track

The orbit data is extracted from the following two-line orbital elements,

1 25544U 98067A   13169.79250632  .00006703  00000-0  12150-3 0   308
2 25544 051.6483 100.3790 0010805 082.9719 322.0867 15.50858182834959
Epoch (UTC): 18 June 2013 19:01:12
Eccentricity: 0.0010805
inclination: 51.6483°
perigee height: 407 km
apogee height: 421 km
right ascension of ascending node: 100.3790°
argument of perigee: 82.9719°
revolutions per day: 15.50858182
mean anomaly at epoch: 322.0867°
orbit number at epoch: 83495

The dashed part of the orbit path shows where the satellite is in the earth's shadow,  

Developed and maintained by Chris Peat, Heavens-Above GmbH. Please read the updated FAQ before sending e-mail. Imprint. DLR